Wind_Speed
58 57 57 57 57 58 58 59 60 60 61 61 62 62 63 64 64 65 65 65 66 66 66 66 66 66 66 65 65 65 64 64 65 64 63 61 59 58 57 58 58 57 57 57 56 56 54 54 54 53 52 51 52 52 51 50 48 46 44 43 43 43 41 37 34 35 36 42 48 49 51 51 50 49 48 47 45 42 42 42 42 44 45 43 42
59 58 58 58 59 59 60 60 61 62 63 63 64 64 65 66 66 67 67 67 67 68 67 68 68 68 67 67 67 67 67 67 66 65 64 62 60 58 57 57 57 57 57 57 57 56 55 54 54 53 52 51 51 51 49 49 47 45 43 43 42 41 38 35 33 33 35 40 45 48 51 52 52 52 50 49 46 44 43 43 44 45 45 43 42
60 60 60 60 60 61 61 62 63 63 64 65 65 66 67 68 68 69 69 69 69 70 70 69 69 69 69 69 69 69 69 68 67 66 64 63 61 59 58 57 57 57 57 57 57 57 56 55 54 53 52 51 51 50 49 48 46 44 43 42 42 40 37 35 34 35 35 39 44 47 50 51 52 52 50 49 48 46 45 45 43 43 43 42 41
61 61 61 61 62 62 63 64 64 65 65 66 67 68 69 70 70 71 71 71 71 72 72 72 72 72 71 71 70 70 69 68 68 66 65 63 62 60 59 58 57 57 57 57 57 57 56 55 54 53 52 51 52 51 49 47 46 44 42 41 41 40 38 35 35 37 39 42 45 47 49 49 50 50 48 47 46 45 44 43 41 40 39 38 38
62 62 63 63 64 64 65 65 66 66 67 68 69 70 71 71 71 72 72 73 73 73 74 74 74 73 72 71 70 69 69 68 67 67 65 64 63 62 61 59 58 57 57 57 57 57 57 56 55 54 52 52 52 51 49 48 47 45 42 41 41 40 39 36 37 38 41 46 47 47 48 49 50 49 46 45 45 44 42 39 37 36 36 36 37
62 63 64 65 65 66 66 67 67 68 68 69 70 71 71 72 72 72 72 73 73 73 73 73 73 72 71 69 68 67 67 67 67 66 66 66 65 64 62 60 59 58 57 58 58 58 58 57 56 55 53 52 52 52 50 49 47 46 43 42 42 41 40 39 40 41 42 47 49 49 48 49 50 50 48 46 45 44 41 38 36 36 38 39 40
62 63 64 65 66 67 67 68 68 69 69 70 71 71 72 72 72 72 71 72 72 72 72 71 70 69 68 67 66 65 65 65 66 66 66 66 66 66 64 62 60 59 58 58 58 58 58 58 57 56 55 54 53 52 51 50 48 47 45 42 43 43 41 41 45 47 46 47 48 49 51 52 52 52 50 47 45 44 42 39 37 38 39 41 43
62 63 64 65 66 67 67 68 69 69 70 70 70 71 71 71 70 70 70 70 71 71 70 69 68 66 65 64 63 63 64 64 65 66 67 67 67 67 66 64 63 62 61 60 59 59 59 59 58 58 56 55 54 53 52 51 50 49 46 44 43 44 43 43 47 51 51 50 49 49 52 54 54 53 52 49 46 45 45 43 41 42 43 42 42
62 63 64 65 66 67 67 68 69 69 69 69 69 69 70 70 70 70 70 71 71 70 68 66 65 63 63 63 63 63 64 64 65 67 68 69 69 69 68 67 65 64 63 62 61 60 60 60 60 59 58 57 55 54 53 53 52 51 48 46 45 46 46 46 49 54 56 56 54 53 53 54 53 53 52 51 49 49 48 47 47 47 46 45 43
61 62 63 64 65 66 67 67 68 68 68 68 69 69 69 70 70 70 71 71 71 69 67 65 64 63 63 63 63 64 65 65 66 67 69 70 70 70 70 69 68 67 66 65 63 62 61 61 61 60 60 59 58 56 55 54 53 52 51 48 47 47 48 48 50 55 58 59 59 58 57 56 54 53 53 53 54 53 51 50 50 49 46 44 43
61 61 62 63 64 65 66 67 68 68 68 69 69 69 69 70 70 71 71 70 68 67 66 65 64 64 64 64 65 65 66 67 68 69 69 69 70 70 70 70 69 69 68 67 66 65 64 63 62 62 61 61 60 59 57 56 55 54 53 52 49 49 50 50 51 56 60 62 63 63 61 59 56 55 55 55 56 54 52 51 50 49 45 43 43
61 62 63 64 65 66 67 68 68 68 68 68 69 69 70 70 70 69 68 66 65 65 64 64 64 64 64 65 66 67 68 69 70 70 70 70 70 70 70 70 70 70 70 69 69 68 67 66 65 64 63 62 62 61 60 58 57 56 55 54 52 51 52 52 52 56 61 64 65 65 64 61 59 58 57 58 57 54 53 52 51 50 48 46 46
61 62 63 64 65 66 66 67 67 67 67 68 68 69 68 67 66 64 63 63 63 63 63 63 63 64 65 66 68 69 70 71 71 71 71 71 71 72 71 71 71 71 71 71 71 71 70 69 69 67 65 64 63 63 63 61 59 58 57 57 56 54 53 54 54 56 61 66 67 66 66 64 61 59 58 58 57 55 54 53 53 53 51 50 49
60 61 61 62 62 63 64 64 65 65 65 65 65 64 63 62 62 62 63 63 62 62 63 63 64 66 67 68 69 70 71 72 73 73 73 74 74 74 74 74 73 73 73 73 73 73 73 73 72 71 69 67 65 65 65 64 63 61 59 59 58 57 56 56 57 56 60 66 69 68 67 66 64 61 59 58 56 56 57 57 57 57 56 55 54
60 60 60 60 61 62 62 62 61 61 61 61 60 61 61 62 63 64 64 63 63 64 64 65 67 68 69 70 71 72 73 74 74 75 76 76 77 77 77 77 76 76 75 75 75 75 75 75 75 74 73 71 69 67 66 66 66 64 61 61 61 60 59 58 59 58 59 65 70 70 69 68 67 65 64 62 60 60 60 61 61 61 60 59 57
59 59 59 60 60 60 59 59 59 60 61 61 62 63 63 64 64 64 64 64 64 65 66 67 68 69 70 71 72 73 74 75 76 77 78 78 79 80 80 79 79 79 78 77 77 76 76 76 77 78 77 75 72 70 69 68 68 66 65 63 63 63 62 61 61 61 60 63 69 72 71 69 69 68 68 67 66 65 65 64 64 63 62 60 58
59 59 58 58 58 57 57 59 61 62 63 63 64 64 64 64 64 64 64 65 65 66 67 69 70 71 72 73 74 75 76 77 78 79 80 80 81 81 82 81 81 81 80 79 78 76 75 75 76 78 79 78 75 73 71 70 70 69 67 66 65 65 65 63 62 63 63 62 67 73 74 72 71 71 70 69 69 68 67 65 63 62 60 60 59
57 57 56 56 56 58 60 62 63 63 63 64 64 64 64 64 64 65 65 66 66 68 69 70 72 73 74 75 76 77 78 79 80 81 81 82 82 82 81 81 80 80 79 79 78 76 74 73 73 74 77 79 78 75 73 72 72 71 70 69 68 67 67 66 64 65 66 64 66 72 75 75 74 73 72 71 70 68 65 63 62 60 60 60 58
56 56 57 58 60 62 63 64 63 63 62 62 62 63 63 64 64 65 66 67 68 69 71 72 73 75 76 77 78 79 80 81 81 82 81 81 81 80 79 78 77 76 76 76 75 74 72 70 69 70 72 75 77 76 73 72 73 73 72 71 70 69 69 68 67 67 67 67 67 70 75 77 76 74 73 72 71 69 66 63 62 61 60 61 59
57 58 61 62 63 64 64 63 62 61 61 62 62 63 63 64 65 66 67 69 70 71 72 73 75 76 77 79 80 81 81 81 81 80 79 78 77 76 75 73 73 72 72 71 71 71 69 66 63 63 65 68 72 73 72 71 71 73 74 73 73 72 71 70 70 69 69 70 69 69 74 77 77 75 73 73 73 72 69 66 64 63 62 63 61
60 62 63 63 63 63 62 61 60 60 61 62 63 63 64 66 67 68 69 70 71 72 73 74 76 77 78 79 80 80 80 79 78 77 75 74 73 71 70 69 68 68 68 68 67 66 66 63 59 58 59 61 65 68 70 69 69 71 74 75 74 74 73 72 72 71 71 72 71 70 72 77 78 76 74 73 73 73 73 71 68 67 66 65 64
62 62 61 61 60 59 59 59 60 61 61 62 63 65 66 67 68 69 70 71 72 73 74 75 77 78 78 78 78 77 76 74 73 71 70 69 68 67 66 65 64 65 65 65 64 63 62 60 56 53 53 54 58 62 65 66 66 68 72 74 75 75 75 74 73 73 73 73 73 71 72 76 80 78 76 75 75 74 73 73 71 70 70 68 65
60 60 59 58 58 58 58 59 60 61 62 63 65 66 66 67 68 69 70 71 72 74 75 76 77 77 76 75 74 72 71 69 68 67 66 66 66 65 64 63 62 61 62 61 60 60 60 58 53 49 49 49 51 56 60 62 62 64 68 72 75 76 76 76 75 74 74 75 75 74 72 75 80 82 79 77 78 76 75 73 72 70 70 69 66
59 58 58 57 58 58 59 60 61 62 63 64 65 66 66 67 68 69 70 72 73 74 75 75 74 74 73 71 69 68 67 66 65 65 65 65 65 64 63 61 59 58 58 57 56 56 57 56 51 46 45 46 46 50 55 58 58 60 64 69 74 76 77 77 76 75 76 76 77 76 74 74 78 83 83 81 80 80 78 76 73 71 69 69 68
58 58 57 58 58 59 60 61 62 63 64 64 65 65 66 67 68 70 71 72 73 73 72 72 71 69 67 66 65 64 65 65 65 64 64 63 63 62 61 59 56 54 53 52 51 50 51 53 50 44 41 42 42 46 51 54 54 56 60 65 71 75 77 78 78 77 77 77 78 78 77 75 76 82 85 84 82 82 81 79 77 73 71 70 69
57 57 58 58 60 61 62 63 63 64 64 64 65 65 66 67 69 70 71 71 71 70 69 68 66 64 62 61 62 62 63 64 64 64 63 62 61 60 60 58 55 53 50 48 47 46 45 47 47 43 40 38 39 41 47 50 51 52 56 61 67 73 76 78 79 79 78 78 79 80 79 78 77 79 85 87 86 84 83 82 80 77 75 73 72
57 58 59 60 61 62 62 63 63 63 63 64 65 66 67 68 69 69 69 69 68 67 65 63 61 60 59 59 60 61 61 62 62 62 62 61 59 58 58 58 57 54 51 48 46 44 43 43 43 41 38 37 36 38 42 47 49 49 52 57 62 69 75 78 80 80 80 80 80 81 81 80 79 78 82 87 88 86 84 83 82 81 79 78 76
59 60 60 61 62 62 62 62 63 63 64 65 66 67 67 68 67 67 66 65 64 61 59 57 56 57 58 58 59 59 59 59 59 58 58 57 56 55 55 56 55 54 51 48 44 43 41 40 39 38 37 35 34 35 38 43 46 47 50 54 59 65 72 77 80 81 82 81 81 82 84 84 82 80 80 84 87 87 86 84 84 83 82 81 81
60 60 61 61 61 61 62 62 63 64 64 65 66 66 66 66 65 64 62 60 58 56 54 54 53 54 55 55 56 56 56 56 55 54 54 53 51 49 50 51 51 50 48 46 42 40 39 38 36 35 35 34 33 33 35 39 43 45 47 51 56 61 69 76 80 82 83 83 82 84 85 84 82 81 81 82 85 87 87 85 84 85 84 83 83
59 60 60 60 61 62 62 63 64 65 65 65 65 65 64 63 61 59 56 53 52 52 52 52 52 52 52 52 52 52 52 52 51 50 50 50 49 47 46 47 47 46 45 43 39 36 35 36 35 33 32 32 31 31 33 36 40 43 45 48 53 58 65 72 78 81 83 84 84 84 84 84 83 83 82 81 82 85 87 87 85 85 85 84 84
59 60 61 62 62 63 64 65 65 65 65 64 63 62 61 59 56 52 49 48 48 49 50 51 51 51 50 50 50 50 50 49 49 49 48 48 48 46 45 44 45 44 41 40 38 34 32 32 32 31 30 30 29 29 31 34 38 41 43 46 50 56 62 69 75 80 83 85 86 84 83 84 85 84 83 82 81 82 85 88 87 86 85 85 85
60 61 62 63 64 65 65 65 65 64 63 62 61 59 56 53 49 47 45 45 45 46 47 48 48 48 48 48 48 48 49 49 48 48 47 47 46 44 43 42 43 42 40 37 36 35 32 30 29 29 28 27 28 28 29 32 35 39 42 45 48 53 59 65 72 78 83 86 86 85 85 85 86 85 85 84 83 82 83 86 88 88 87 87 86
62 63 64 65 65 65 65 64 63 61 60 59 56 53 49 46 44 44 43 43 43 44 45 45 45 45 45 44 45 47 48 48 48 47 46 46 45 43 41 40 40 41 39 36 33 32 31 29 28 27 26 25 26 26 27 30 33 37 40 43 46 50 56 62 68 75 81 84 86 86 86 86 87 87 86 86 86 84 83 84 87 89 89 89 88
63 64 65 65 64 63 62 61 60 58 56 53 50 46 44 43 42 42 41 41 42 42 42 42 42 43 42 42 44 46 47 48 48 47 46 45 44 43 40 39 38 37 37 34 32 31 29 28 26 25 24 24 24 25 26 28 31 34 38 42 45 48 53 59 64 70 77 82 85 86 87 87 87 88 88 87 86 85 83 82 84 87 89 89 89
64 64 63 63 62 60 59 58 56 53 49 46 43 42 42 41 41 40 40 40 40 40 40 40 40 40 41 42 43 46 47 47 47 47 45 45 45 44 41 39 37 37 37 35 33 30 29 27 25 24 23 22 22 23 24 26 29 32 36 40 43 46 51 56 61 66 72 79 84 87 88 88 89 89 88 87 86 85 84 84 83 84 87 88 89
63 62 60 59 58 57 55 52 49 46 43 41 41 41 40 40 39 39 39 39 38 38 38 38 37 38 40 41 43 45 47 47 47 46 45 44 44 43 41 39 38 37 36 36 34 31 28 27 25 23 21 21 20 21 22 24 27 30 34 38 41 45 49 53 57 62 68 75 81 86 88 89 90 90 89 87 86 86 86 86 85 84 85 87 89
60 58 56 55 54 51 49 46 43 41 40 40 39 39 39 38 38 38 38 37 37 36 36 36 36 37 39 41 42 44 45 46 46 46 45 43 42 41 40 39 38 36 35 35 34 32 29 26 25 22 20 19 19 19 20 22 25 28 31 35 39 42 46 50 55 59 64 71 77 83 87 89 90 90 89 88 88 88 88 87 87 87 86 87 88
56 54 52 50 48 45 43 41 40 39 39 38 38 38 37 37 37 37 36 36 35 34 34 34 35 37 38 40 42 44 45 46 46 46 45 44 43 42 40 39 37 35 33 32 32 32 30 27 25 23 21 19 18 18 19 20 23 26 29 33 37 40 44 48 52 56 61 66 73 79 85 88 90 90 90 89 89 89 89 89 89 89 89 88 89
51 49 47 45 43 41 40 39 39 38 37 37 37 37 36 36 35 35 35 34 33 32 33 33 35 36 38 40 42 44 45 46 47 47 46 45 43 42 41 39 37 35 33 32 31 31 30 28 25 23 21 19 17 17 17 19 20 23 27 30 34 38 41 45 49 54 58 62 68 74 81 86 89 90 90 90 90 91 90 90 90 90 91 91 90
46 45 43 42 40 39 39 38 37 37 36 36 36 35 35 34 34 33 33 32 31 31 31 32 34 36 37 39 41 43 45 46 47 47 46 45 43 41 41 40 39 36 34 32 30 30 30 29 27 25 22 20 18 16 16 17 19 21 24 28 31 35 39 42 46 51 55 59 63 69 75 82 87 90 91 92 92 92 92 92 91 92 92 92 91
43 42 41 40 40 39 38 37 36 36 35 35 34 34 34 33 32 31 31 30 30 30 31 32 34 35 37 38 40 42 44 46 47 47 46 45 43 41 40 40 39 37 35 33 31 29 29 28 28 26 24 21 19 17 16 16 17 19 22 25 28 32 36 39 43 47 51 55 59 64 70 76 83 88 91 93 93 93 93 93 93 93 93 93 93
42 41 41 40 39 38 37 36 35 35 34 33 33 33 33 32 31 30 30 29 29 29 30 32 33 35 37 38 39 42 44 45 46 47 46 45 43 41 39 38 38 38 36 34 32 31 29 28 28 27 25 23 20 18 16 15 16 17 19 22 25 29 33 36 40 44 48 52 56 60 65 71 77 83 89 92 94 95 95 95 95 95 95 95 94
41 41 40 39 38 37 35 34 33 32 32 32 32 32 32 31 31 30 29 29 29 30 31 32 33 35 37 38 39 41 43 45 45 46 46 45 43 41 39 38 37 37 36 35 33 32 30 29 28 27 26 24 22 19 17 16 15 16 17 20 23 26 30 33 37 40 44 48 53 57 61 65 71 77 84 89 93 95 96 96 96 96 96 96 96
40 39 38 37 35 34 33 32 31 30 30 30 31 31 31 30 30 29 29 29 29 30 31 32 33 35 37 38 40 41 43 44 45 45 45 45 44 42 40 38 37 36 36 35 34 33 31 30 29 26 24 23 23 21 19 16 15 15 16 17 20 23 26 30 34 37 41 45 49 54 57 61 65 71 77 83 89 93 96 97 98 98 98 98 98
37 36 35 33 32 30 30 29 29 29 29 30 30 29 29 29 29 29 30 30 30 31 32 33 34 35 37 39 40 41 42 43 44 45 45 44 44 43 41 39 37 36 35 35 34 33 32 31 30 28 25 22 21 20 20 18 16 15 15 16 18 20 23 27 30 34 38 41 45 50 54 57 61 65 70 76 82 88 93 97 98 99 100 100 100
32 32 30 29 28 27 27 27 27 28 28 29 29 28 28 27 28 29 30 31 31 32 33 34 35 36 37 39 41 42 43 43 44 44 45 45 44 43 42 41 39 37 36 35 34 33 33 32 31 30 28 24 21 19 19 18 18 16 15 15 16 18 20 23 27 30 34 38 42 46 50 54 57 61 65 69 75 81 87 92 96 99 101 101 102
28 28 27 26 26 26 26 26 26 27 28 28 28 28 27 27 27 28 30 31 32 33 34 36 36 37 38 39 40 42 43 44 44 44 45 45 44 44 43 42 41 39 37 35 34 33 32 32 31 30 29 27 24 21 19 18 17 17 16 15 15 16 18 20 23 27 30 34 37 41 46 50 53 57 60 64 68 73 78 85 90 95 99 102 103
25 26 25 25 25 25 25 25 26 27 27 28 28 27 27 27 27 28 29 31 32 34 35 37 38 39 39 40 41 42 43 44 44 45 45 45 45 44 44 43 42 40 38 36 35 33 32 31 30 29 28 27 26 24 22 19 17 17 16 16 16 16 16 18 20 23 26 30 33 37 41 45 49 53 56 60 63 67 71 76 82 88 93 98 101
24 24 24 24 24 24 25 25 26 26 27 27 27 27 27 27 27 28 29 30 32 33 35 37 38 40 40 41 42 43 43 44 45 45 45 45 45 45 45 44 42 41 39 38 36 34 33 31 30 29 28 27 26 25 24 22 20 18 16 16 16 16 16 17 18 20 23 26 29 33 36 40 44 48 52 56 59 62 66 69 74 78 84 89 94
22 23 23 23 24 24 25 26 26 26 26 26 27 28 28 28 28 29 29 30 31 33 34 36 38 40 41 42 43 44 44 45 45 46 46 46 46 46 45 45 44 42 40 39 37 36 34 32 31 29 28 27 26 25 24 23 22 20 19 17 16 16 16 17 17 18 20 23 26 29 32 35 39 43 47 51 55 58 61 65 68 72 75 80 84
21 22 23 23 24 25 25 26 26 26 26 26 27 28 29 29 29 30 31 31 32 33 34 36 38 40 42 43 44 44 45 45 46 47 47 48 48 47 47 46 44 43 42 40 38 37 35 34 32 31 29 28 27 25 24 23 22 22 21 19 18 17 16 16 17 17 19 20 22 25 28 31 34 38 42 46 49 53 56 60 63 67 70 73 76
Wind_Direction
271 272 273 273 275 276 277 278 279 279 280 280 281 281 282 282 283 283 284 284 285 285 286 286 287 287 287 287 287 288 288 289 289 289 288 287 286 285 283 280 278 277 275 274 272 271 270 271 272 272 272 272 271 271 271 271 270 271 271 271 273 276 279 278 265 250 237 228 228 232 233 233 235 236 239 242 244 246 248 252 256 257 259 260 258
272 273 274 275 276 277 278 279 280 280 281 281 282 283 283 284 284 284 285 286 286 286 286 287 287 287 287 288 288 288 288 289 289 289 288 286 285 283 281 279 278 277 275 274 272 271 270 269 270 271 271 271 270 270 270 270 269 269 269 269 271 273 277 276 259 241 232 228 230 233 234 235 236 237 239 241 243 245 248 255 259 258 258 257 254
273 274 275 276 277 278 279 280 280 281 282 283 283 284 284 284 285 286 286 286 287 287 287 286 286 286 287 287 288 288 288 288 288 287 287 286 285 284 282 280 278 277 276 274 273 271 270 269 269 269 270 270 270 270 270 269 268 267 266 266 268 269 271 267 250 234 228 228 232 234 235 237 238 239 241 243 244 246 249 253 254 253 253 252 249
275 275 276 277 277 278 279 279 280 281 282 283 283 283 284 285 285 286 287 287 287 288 288 288 287 287 287 287 287 287 287 287 287 287 286 286 285 285 284 282 280 279 277 275 274 272 271 270 269 269 269 269 270 270 269 268 267 266 264 263 264 266 267 260 243 231 227 227 232 235 235 236 237 238 240 241 243 246 248 248 248 249 250 248 247
276 276 277 277 277 278 278 279 280 281 281 282 282 283 284 285 286 287 287 288 288 288 289 289 289 288 288 288 287 287 287 287 287 287 287 286 285 285 285 283 281 280 279 277 275 273 271 270 269 269 268 268 269 269 268 267 266 264 262 261 260 261 263 254 237 229 229 228 231 235 236 235 234 235 236 237 240 243 243 242 243 246 248 248 248
277 277 277 277 277 278 278 279 280 280 281 282 283 284 285 286 287 288 289 289 289 289 289 289 289 288 288 287 286 286 286 286 286 286 286 286 286 285 285 283 281 280 279 278 276 274 272 271 270 269 268 268 267 267 267 266 264 262 259 258 257 256 258 251 234 226 227 229 230 233 235 235 235 235 233 233 237 240 238 237 240 242 244 246 249
278 277 277 277 278 278 279 279 280 281 281 282 283 284 286 287 288 289 289 290 290 290 290 289 288 287 286 286 285 284 284 285 285 285 285 285 285 285 285 283 282 280 279 277 276 275 273 271 270 269 267 267 266 266 266 264 262 261 257 254 253 252 254 249 235 225 223 226 229 231 233 235 235 235 233 233 235 235 234 236 237 237 238 241 245
278 278 278 278 278 279 279 279 280 281 281 282 284 285 286 287 288 289 290 290 290 291 290 289 287 286 285 284 284 283 283 284 284 284 284 285 284 284 284 283 282 281 279 277 276 274 272 271 269 268 267 266 265 264 264 263 261 259 256 252 250 249 249 246 236 227 223 222 225 228 231 233 234 234 233 234 233 230 231 236 237 236 236 237 241
279 279 279 278 278 279 279 279 280 281 282 283 284 285 286 287 288 289 290 291 291 291 290 288 286 285 284 283 283 283 283 283 283 284 284 284 284 284 283 283 282 280 279 278 275 273 271 270 269 268 267 265 264 263 263 262 260 259 255 251 247 246 247 244 238 231 225 223 223 226 229 231 232 233 233 232 230 229 233 238 239 239 239 240 244
280 280 279 279 279 279 280 280 281 282 282 283 284 285 286 287 288 289 291 292 292 291 290 288 286 285 284 284 284 284 284 284 283 283 283 283 283 283 283 282 281 280 278 277 275 273 271 269 267 267 266 265 264 263 261 260 259 257 255 250 246 244 244 243 239 234 229 226 225 226 229 230 230 231 232 231 230 232 236 239 240 241 242 244 248
280 280 280 280 280 280 280 281 281 282 283 284 284 285 287 288 289 290 291 291 290 289 288 287 286 286 286 286 286 285 285 284 284 283 282 282 281 281 281 281 280 279 278 277 275 273 271 269 267 265 264 264 263 262 261 259 258 256 254 250 245 242 242 242 239 235 231 229 228 229 230 231 232 232 233 232 232 233 235 237 239 242 244 246 249
279 279 279 279 280 280 281 281 282 283 283 284 286 287 288 289 290 290 290 290 289 289 288 287 287 287 287 287 286 285 285 284 283 283 282 281 281 280 279 279 278 278 277 276 275 273 271 269 267 265 263 262 262 261 260 258 257 255 253 250 246 241 240 240 239 236 232 231 231 231 233 233 234 234 235 235 234 233 233 235 237 240 243 246 248
280 279 279 279 280 280 281 281 282 283 285 287 288 288 289 289 289 290 290 290 289 289 288 288 288 288 287 286 286 285 285 284 284 283 282 282 281 280 279 278 277 276 275 275 274 273 271 270 268 266 263 261 260 259 259 258 256 254 252 250 246 242 238 238 238 236 233 232 231 232 233 233 234 234 234 235 235 233 231 232 233 236 240 245 246
280 280 280 280 281 281 282 283 285 286 288 288 288 288 288 289 289 290 290 290 289 289 289 289 288 288 287 286 286 286 285 285 285 284 284 283 282 281 279 278 277 275 274 273 273 272 271 270 268 266 264 262 259 258 257 257 255 253 251 249 247 243 238 236 237 237 234 232 231 232 233 233 232 232 231 232 232 231 229 229 231 234 240 244 244
280 281 281 282 283 284 285 286 287 288 288 288 288 289 290 290 290 290 291 291 290 290 289 289 289 288 288 287 287 287 287 287 286 286 285 285 284 283 281 280 279 277 275 273 272 271 270 269 268 266 264 262 260 258 256 255 254 253 250 248 246 243 239 235 235 236 234 232 231 231 232 233 232 231 230 230 229 229 229 230 232 235 240 243 244
282 283 284 285 285 285 286 286 287 289 289 289 290 290 291 290 291 291 291 291 291 290 290 289 289 289 289 288 288 288 288 288 288 287 287 286 286 285 284 283 281 280 278 275 273 271 269 268 267 266 265 262 260 258 256 254 253 252 250 248 245 243 240 236 233 234 234 232 230 230 230 232 232 232 231 231 230 230 231 232 235 237 241 243 244
284 285 285 285 285 285 286 287 289 291 291 291 291 291 291 291 291 291 290 290 290 290 290 290 291 291 291 291 291 291 290 290 290 290 289 289 288 287 286 285 284 282 281 278 276 273 270 267 266 265 264 263 260 257 255 253 252 251 249 247 245 243 241 238 233 232 233 232 230 229 229 230 231 232 232 232 233 233 234 235 237 239 242 244 245
283 284 284 285 286 287 289 290 292 292 291 291 291 291 290 290 290 290 290 291 291 292 292 292 293 293 293 293 293 292 292 292 292 292 291 291 290 289 288 287 286 285 283 281 278 276 272 269 266 264 263 262 261 258 254 252 250 249 248 246 244 242 240 238 234 231 231 231 230 229 229 229 230 231 232 232 232 233 234 235 237 239 243 245 245
284 285 287 289 289 290 291 291 291 291 290 290 290 289 289 289 290 291 292 293 293 294 294 294 294 294 294 294 294 294 294 294 294 293 293 292 291 291 290 289 288 286 285 283 281 279 276 272 269 265 263 261 260 258 255 251 248 247 246 245 243 242 240 238 235 231 229 230 230 229 229 228 229 230 231 232 232 232 233 233 235 238 241 241 241
286 288 289 289 289 289 289 289 289 288 288 288 288 289 290 291 292 293 294 294 294 295 295 295 295 295 295 295 295 295 295 295 295 295 294 294 293 292 292 291 290 289 287 285 283 282 279 276 271 267 264 261 259 258 255 251 247 245 244 243 242 240 239 237 235 231 229 228 229 229 228 228 228 229 230 231 232 232 233 233 233 235 237 237 239
286 287 288 288 287 287 287 287 287 287 288 288 290 291 292 293 294 294 294 295 295 295 295 295 296 296 296 296 296 297 296 296 296 296 295 295 294 294 293 293 292 291 289 288 286 284 282 279 275 270 265 262 259 257 255 251 247 243 241 241 240 239 238 236 234 231 228 227 228 228 227 227 227 228 229 230 232 233 233 234 233 234 235 236 239
286 287 287 287 287 286 286 287 287 288 289 290 292 292 293 294 294 294 295 295 295 296 296 297 297 297 297 297 298 297 297 297 297 297 297 297 296 296 295 295 294 293 292 290 289 287 284 282 278 274 268 262 258 256 254 251 247 242 239 238 237 237 236 235 233 231 228 227 227 227 227 226 226 227 228 229 231 233 234 234 234 234 235 237 238
285 286 287 286 286 286 287 287 288 290 291 292 292 293 293 294 294 295 295 296 297 297 298 298 299 299 299 299 299 299 299 299 299 300 300 300 299 299 298 297 296 294 293 292 290 289 287 284 281 276 270 264 258 255 253 251 247 242 238 235 234 234 234 233 232 230 228 226 225 226 227 226 225 225 227 228 230 232 233 234 234 234 235 236 236
285 286 286 286 286 287 288 289 289 290 291 291 292 293 293 294 295 296 297 297 298 299 299 300 300 301 301 301 302 302 302 302 303 302 302 302 302 301 300 299 298 296 294 293 291 290 288 286 283 278 272 266 259 254 252 250 247 242 237 234 232 232 232 232 231 229 228 226 225 225 226 226 225 225 226 227 229 230 232 232 232 233 233 234 235
285 286 286 287 287 288 288 289 290 290 291 291 292 293 294 295 296 297 298 299 300 300 301 301 302 302 303 303 304 304 305 305 305 305 305 304 304 303 302 300 299 297 295 294 292 290 288 286 285 282 275 268 260 254 251 250 247 242 237 233 230 229 229 229 229 228 227 225 224 224 224 225 226 225 225 226 227 229 230 230 231 231 231 232 234
286 286 287 287 288 288 289 289 289 290 291 292 293 294 296 297 298 299 300 301 302 302 302 303 303 303 304 305 305 306 306 306 307 307 306 306 306 306 305 304 303 301 300 298 296 293 289 286 285 284 278 270 262 254 250 249 246 242 237 233 229 227 227 227 227 227 226 225 224 224 223 224 225 226 225 225 226 228 229 229 230 230 230 231 233
286 286 287 287 287 288 288 289 290 291 292 294 295 296 297 298 300 301 302 303 303 303 303 304 304 305 306 307 307 307 308 308 308 309 309 310 311 311 310 308 307 306 304 303 300 296 292 288 286 283 279 272 264 255 249 247 246 241 236 232 229 226 225 225 225 226 225 224 223 223 223 223 224 225 226 226 226 228 229 230 230 230 230 231 233
285 285 286 286 287 288 289 290 291 293 294 295 297 298 299 300 301 302 303 303 303 303 304 305 306 307 308 308 308 308 309 309 310 311 312 312 313 312 311 309 308 307 306 305 302 299 294 290 287 284 279 273 266 257 249 246 244 241 236 232 229 225 223 223 224 224 224 224 223 222 223 223 223 224 225 226 226 227 229 230 231 231 231 231 233
284 285 285 286 287 289 290 292 293 294 296 297 298 300 301 302 303 304 304 303 303 303 304 305 306 307 307 307 308 309 310 310 311 312 312 312 312 312 311 309 308 307 307 306 304 301 297 293 289 284 280 275 267 258 250 245 243 240 236 232 229 225 223 222 222 223 223 223 223 222 223 223 224 225 226 226 226 226 228 229 231 232 233 233 234
285 286 287 288 289 291 292 293 295 296 297 299 300 301 302 303 303 304 303 303 303 304 305 306 307 307 307 307 308 309 310 311 312 313 314 314 314 315 314 312 310 309 308 308 306 302 298 295 291 286 280 275 269 260 251 245 242 239 236 232 228 225 223 221 221 221 222 223 223 222 222 223 224 225 226 227 227 227 227 228 230 231 233 233 234
287 288 289 290 291 292 294 295 296 298 299 300 301 302 302 303 303 303 302 303 304 305 306 306 307 307 308 309 310 311 312 314 316 318 318 318 318 319 318 316 313 312 312 312 311 307 302 297 293 288 282 276 269 261 252 245 241 238 236 232 228 225 223 221 220 220 221 222 223 222 222 222 223 225 226 227 227 227 227 228 229 230 232 233 234
289 290 291 292 293 294 295 297 298 299 300 301 301 302 302 302 302 302 302 303 304 305 305 306 307 308 310 312 314 316 318 320 321 322 322 322 321 322 321 319 317 316 316 316 315 312 308 303 296 291 284 277 270 262 253 246 240 238 235 232 229 226 224 222 220 220 220 221 222 222 222 222 223 224 225 226 227 227 227 227 228 230 231 232 233
289 290 291 292 294 295 296 297 298 299 300 301 302 302 301 301 301 302 303 304 305 305 305 306 308 309 312 315 319 322 323 324 325 325 325 325 324 324 325 324 322 320 318 318 317 315 312 307 301 294 287 280 271 263 255 247 241 237 234 232 229 227 224 223 221 220 220 221 222 222 222 222 222 223 225 226 227 227 227 228 228 229 230 232 233
290 291 292 293 295 296 297 298 299 300 300 301 301 300 300 300 301 302 304 305 305 305 306 307 309 312 316 321 324 326 327 327 327 327 327 327 327 328 328 327 325 322 320 321 322 321 317 312 306 298 291 283 274 265 256 248 241 236 234 232 229 227 225 224 223 221 220 220 221 222 222 223 223 223 225 226 228 228 229 229 229 230 231 232 233
290 291 293 294 295 296 297 298 299 300 300 300 300 299 299 300 302 303 304 305 305 305 306 308 312 317 322 326 328 329 329 329 329 330 330 331 332 332 331 331 330 329 328 327 326 326 323 318 311 304 295 287 277 268 259 250 242 237 234 232 229 227 226 225 224 222 221 220 220 221 222 222 223 224 224 226 227 229 229 230 230 231 231 232 233
291 292 293 294 295 296 297 298 299 299 299 299 299 299 299 301 302 303 304 305 306 306 308 312 317 323 326 329 331 331 331 331 332 333 333 334 334 334 334 335 336 336 334 331 329 329 328 323 317 310 301 292 282 272 262 253 245 238 234 232 230 228 226 226 225 223 222 221 220 220 221 222 223 224 224 225 227 228 229 230 230 231 232 232 233
291 292 293 294 295 296 297 298 298 298 298 298 298 298 299 301 302 303 305 306 307 308 312 317 322 326 329 331 332 333 333 334 334 335 335 335 335 336 337 338 338 338 338 335 333 331 331 328 323 316 308 299 288 277 266 257 248 241 235 233 231 229 227 226 225 224 223 222 221 221 221 222 224 224 225 225 226 228 229 230 230 231 232 233 233
291 292 293 294 295 296 296 297 298 297 297 296 297 297 299 300 302 304 305 306 308 311 315 321 325 328 331 332 334 335 336 336 337 337 337 338 338 338 338 339 339 340 340 339 337 334 333 332 329 323 316 307 296 283 272 261 251 244 238 234 232 230 228 226 226 225 224 223 222 221 222 222 224 225 225 225 226 227 229 230 231 231 232 233 234
291 292 293 294 295 295 296 296 296 295 295 295 296 297 298 300 302 304 305 306 309 313 318 323 327 330 332 334 335 337 338 339 340 340 340 340 341 340 340 339 340 341 342 342 342 340 337 336 334 330 324 316 305 292 279 267 257 248 241 237 234 232 230 228 227 226 226 225 224 223 222 222 223 224 225 226 226 227 229 231 232 233 233 234 234
291 292 292 293 294 294 295 294 294 293 293 294 295 296 298 300 302 303 304 306 311 315 320 325 328 331 333 335 337 339 340 342 342 342 342 341 342 342 342 341 341 342 343 344 345 345 342 340 337 334 330 323 315 302 288 274 263 253 246 240 236 234 232 230 228 228 227 226 225 225 224 223 223 224 225 226 227 227 229 230 232 233 234 235 235
291 291 292 293 293 293 293 292 292 292 292 293 294 296 298 300 301 302 304 307 312 317 322 326 329 331 333 336 339 340 342 344 344 343 343 343 343 344 344 343 342 343 344 345 347 348 347 344 341 337 334 329 322 312 299 283 270 260 251 244 239 236 234 232 230 229 228 228 227 226 226 225 224 225 225 226 227 228 229 230 231 233 235 236 236
290 290 291 292 292 292 291 290 290 290 291 292 294 296 298 300 301 302 305 309 314 318 323 326 329 331 333 336 339 341 343 345 345 345 344 344 344 345 346 345 344 344 345 346 347 348 349 349 346 341 337 332 327 320 310 295 280 267 257 250 244 239 236 234 233 231 230 229 229 228 227 227 226 226 226 226 227 228 229 230 231 232 234 236 237
289 289 290 290 290 290 289 288 289 289 290 292 295 298 300 301 302 304 308 312 316 320 323 326 329 332 334 336 339 342 343 345 346 346 346 345 345 345 346 347 347 346 346 347 347 348 350 351 350 345 340 335 331 325 317 306 293 278 265 256 249 244 240 237 235 233 231 230 230 230 229 229 228 227 227 227 228 229 230 231 232 233 234 235 237
288 288 289 289 288 287 287 287 288 289 291 293 297 299 301 302 304 307 310 314 317 320 323 326 329 332 334 336 339 341 343 344 346 347 347 347 347 346 347 348 348 348 347 348 348 349 350 350 350 348 344 339 334 330 324 315 304 291 277 265 255 249 244 241 238 235 234 232 231 231 231 231 230 229 229 229 229 229 230 231 232 233 234 235 236
287 287 287 286 286 285 285 286 287 289 292 295 298 299 300 302 305 309 312 315 318 320 323 326 329 331 333 335 337 339 341 343 345 347 348 348 348 348 347 348 349 349 348 349 349 350 350 350 349 348 346 343 339 334 329 323 314 302 289 276 265 255 249 245 242 239 236 234 233 233 233 233 232 231 231 230 230 230 231 231 232 233 234 235 236
285 285 284 284 284 284 285 286 288 290 294 296 298 299 300 303 306 310 313 316 318 320 322 325 328 330 333 334 336 337 339 341 344 346 348 349 349 349 349 348 349 349 349 349 350 350 350 350 349 348 346 345 344 340 336 330 324 314 302 289 276 265 257 250 246 243 241 238 236 235 235 235 234 234 233 232 232 232 232 232 233 234 235 236 237
284 283 283 283 283 283 285 287 290 293 295 297 298 299 301 303 307 310 313 315 317 320 322 324 326 329 331 333 334 335 337 339 342 345 347 348 349 350 350 349 348 348 349 349 349 350 350 350 349 348 347 346 345 343 341 337 331 324 315 303 290 277 267 259 253 248 245 243 240 238 237 236 236 236 235 235 234 234 233 234 234 235 235 236 237
283 282 283 283 283 284 286 289 291 294 296 296 297 299 301 304 307 310 312 314 317 319 321 322 324 326 329 331 333 334 336 338 340 342 345 347 348 350 350 350 349 348 348 348 348 349 349 349 349 349 347 346 345 344 343 341 337 331 324 315 305 292 280 270 261 255 250 247 245 242 240 239 238 238 238 237 237 236 236 235 235 236 236 237 238
281 281 282 283 285 287 289 291 293 294 295 296 297 299 302 304 307 308 311 313 315 317 319 321 322 324 326 329 331 333 334 336 338 340 343 345 347 348 349 349 348 347 347 347 347 347 347 348 348 348 348 347 345 344 343 342 340 336 331 324 315 306 295 283 273 264 258 253 250 247 245 242 241 240 240 239 239 238 238 238 238 237 238 238 238
281 282 284 286 289 290 292 293 294 294 295 296 298 300 302 305 307 308 310 312 314 315 317 319 321 322 324 327 329 331 332 334 336 338 340 343 345 346 347 348 347 346 346 346 346 346 345 345 346 346 347 347 346 345 343 342 341 338 335 330 323 315 306 297 287 277 268 261 256 253 250 247 245 244 243 242 241 241 240 240 240 240 240 240 240
283 285 288 290 291 292 293 294 294 295 296 298 299 300 302 305 307 309 310 311 313 314 316 318 320 321 323 325 327 329 330 332 334 336 338 340 342 344 345 345 345 345 345 345 345 345 344 344 344 344 345 346 346 345 344 342 341 339 336 333 329 322 314 305 297 289 280 272 265 260 256 253 251 249 247 246 245 244 243 242 242 242 242 242 242
Height
10624 10624 10624 10623 10622 10621 10619 10618 10617 10616 10615 10614 10613 10612 10610 10609 10608 10607 10606 10605 10604 10603 10602 10601 10599 10598 10596 10595 10593 10591 10590 10588 10586 10584 10582 10581 10579 10578 10576 10574 10573 10572 10571 10571 10571 10571 10572 10571 10570 10571 10572 10572 10572 10572 10573 10574 10576 10577 10578 10578 10578 10577 10577 10578 10577 10577 10580 10584 10587 10590 10593 10595 10598 10601 10603 10605 10608 10611 10612 10612 10613 10614 10615 10618 10619
10617 10617 10617 10616 10615 10614 10612 10611 10610 10608 10607 10606 10605 10604 10603 10602 10600 10599 10598 10598 10597 10595 10594 10593 10591 10589 10587 10586 10584 10582 10581 10579 10577 10575 10573 10571 10570 10569 10568 10566 10564 10563 10563 10562 10562 10562 10563 10563 10563 10563 10564 10564 10564 10564 10565 10567 10568 10569 10570 10571 10571 10571 10572 10573 10572 10573 10576 10579 10582 10584 10587 10589 10592 10594 10596 10599 10602 10605 10606 10607 10608 10608 10609 10611 10613
10609 10609 10609 10609 10608 10607 10605 10604 10602 10601 10600 10599 10598 10596 10595 10594 10592 10591 10590 10589 10588 10587 10585 10584 10582 10580 10579 10577 10575 10573 10571 10569 10567 10566 10564 10562 10561 10559 10558 10557 10556 10554 10554 10553 10553 10553 10553 10554 10555 10555 10556 10556 10556 10557 10558 10559 10560 10562 10563 10564 10564 10565 10566 10567 10567 10568 10571 10574 10576 10578 10581 10583 10586 10588 10591 10594 10596 10599 10601 10602 10602 10603 10604 10605 10606
10603 10602 10602 10601 10600 10599 10598 10597 10595 10594 10592 10591 10590 10588 10587 10586 10584 10583 10582 10580 10579 10577 10575 10574 10572 10570 10569 10567 10565 10563 10561 10559 10557 10556 10554 10553 10551 10550 10548 10547 10546 10545 10544 10544 10543 10543 10544 10545 10546 10547 10547 10548 10547 10548 10550 10551 10552 10554 10555 10557 10558 10558 10559 10560 10561 10562 10565 10567 10569 10572 10574 10577 10579 10582 10585 10588 10590 10593 10594 10595 10596 10597 10598 10599 10600
10596 10595 10595 10594 10593 10592 10591 10590 10588 10587 10585 10583 10582 10580 10579 10578 10576 10575 10573 10571 10569 10567 10565 10563 10562 10560 10558 10556 10555 10553 10550 10549 10547 10545 10544 10543 10542 10540 10539 10538 10537 10536 10535 10534 10534 10534 10534 10535 10536 10537 10538 10539 10539 10540 10541 10543 10544 10545 10547 10549 10551 10552 10552 10553 10555 10557 10559 10561 10563 10566 10568 10570 10572 10575 10578 10581 10583 10585 10587 10589 10590 10591 10591 10593 10594
10590 10589 10587 10586 10585 10584 10583 10582 10581 10579 10578 10576 10574 10573 10571 10570 10568 10566 10565 10562 10560 10558 10556 10554 10552 10550 10548 10546 10545 10543 10541 10539 10537 10536 10534 10532 10531 10530 10529 10528 10527 10526 10525 10525 10524 10524 10524 10525 10526 10527 10529 10530 10530 10531 10533 10534 10536 10537 10539 10542 10544 10545 10545 10546 10548 10550 10553 10555 10557 10560 10562 10564 10566 10568 10571 10574 10577 10579 10581 10583 10584 10585 10586 10587 10588
10583 10582 10580 10579 10578 10577 10576 10575 10573 10572 10570 10568 10567 10565 10563 10562 10560 10558 10556 10553 10551 10549 10547 10545 10543 10541 10539 10537 10536 10534 10532 10530 10528 10527 10525 10523 10521 10520 10519 10518 10517 10516 10516 10515 10515 10515 10515 10515 10516 10517 10519 10520 10522 10522 10524 10525 10527 10528 10531 10534 10536 10537 10538 10539 10540 10543 10545 10548 10550 10553 10555 10556 10559 10561 10564 10568 10571 10573 10575 10577 10578 10580 10581 10582 10583
10576 10575 10574 10573 10572 10570 10569 10567 10566 10564 10563 10562 10560 10558 10556 10554 10552 10550 10547 10545 10543 10540 10538 10536 10534 10532 10530 10528 10527 10525 10524 10522 10520 10517 10515 10514 10512 10510 10509 10508 10507 10506 10506 10506 10506 10505 10505 10506 10507 10508 10509 10510 10512 10514 10515 10516 10518 10519 10522 10525 10527 10529 10530 10531 10532 10535 10537 10540 10543 10545 10546 10548 10551 10554 10557 10561 10565 10567 10568 10569 10572 10573 10574 10576 10577
10570 10569 10568 10566 10565 10564 10562 10561 10559 10558 10556 10555 10553 10551 10549 10547 10544 10542 10539 10537 10534 10531 10529 10527 10525 10523 10522 10520 10518 10517 10515 10514 10512 10509 10506 10504 10502 10500 10499 10498 10497 10496 10495 10495 10496 10496 10496 10496 10496 10498 10499 10500 10502 10504 10505 10507 10509 10510 10513 10516 10519 10520 10522 10523 10524 10526 10529 10532 10534 10536 10537 10540 10544 10547 10551 10555 10558 10559 10560 10562 10565 10567 10568 10571 10573
10563 10562 10561 10560 10559 10557 10556 10554 10553 10551 10550 10548 10546 10544 10542 10539 10537 10534 10531 10528 10525 10523 10520 10518 10517 10515 10513 10511 10509 10508 10506 10504 10503 10501 10498 10495 10493 10490 10488 10487 10486 10486 10485 10484 10484 10485 10485 10486 10486 10487 10488 10489 10491 10493 10495 10497 10499 10501 10503 10506 10509 10511 10513 10514 10515 10518 10521 10524 10526 10528 10529 10533 10537 10540 10544 10547 10549 10551 10553 10556 10558 10560 10563 10567 10568
10557 10556 10555 10554 10552 10551 10549 10548 10546 10544 10543 10541 10539 10536 10534 10531 10529 10526 10523 10520 10517 10514 10512 10510 10508 10506 10504 10502 10500 10498 10496 10494 10492 10491 10488 10486 10484 10481 10479 10477 10475 10474 10474 10473 10473 10473 10473 10474 10475 10477 10478 10479 10480 10482 10485 10487 10489 10491 10493 10496 10499 10502 10504 10505 10507 10509 10512 10515 10518 10520 10523 10527 10530 10533 10536 10539 10542 10545 10547 10549 10552 10555 10558 10560 10562
10550 10549 10548 10547 10546 10544 10543 10541 10539 10537 10535 10533 10531 10528 10525 10523 10520 10517 10514 10512 10509 10507 10504 10502 10500 10498 10496 10493 10491 10488 10486 10484 10482 10479 10477 10475 10473 10471 10469 10467 10465 10463 10462 10461 10461 10461 10461 10461 10463 10465 10467 10469 10469 10471 10473 10475 10478 10481 10483 10485 10488 10491 10494 10496 10498 10500 10503 10507 10510 10513 10517 10521 10523 10526 10529 10531 10535 10538 10540 10543 10546 10548 10550 10553 10555
10543 10542 10541 10540 10538 10537 10535 10533 10531 10529 10527 10525 10522 10519 10517 10514 10511 10508 10506 10503 10501 10499 10496 10494 10492 10489 10487 10484 10481 10478 10475 10473 10470 10468 10466 10464 10462 10459 10458 10456 10454 10453 10451 10449 10449 10448 10448 10448 10449 10451 10454 10457 10459 10460 10461 10463 10467 10470 10473 10475 10477 10480 10484 10486 10488 10491 10494 10498 10502 10505 10509 10513 10516 10519 10521 10523 10527 10531 10533 10537 10540 10541 10543 10546 10548
10536 10535 10534 10533 10531 10530 10528 10526 10523 10521 10518 10516 10513 10511 10508 10505 10502 10500 10497 10495 10493 10491 10488 10486 10483 10480 10477 10474 10471 10468 10465 10461 10459 10456 10454 10451 10449 10447 10445 10443 10441 10440 10439 10438 10437 10436 10436 10435 10436 10437 10440 10443 10447 10449 10449 10451 10454 10458 10461 10464 10466 10469 10473 10476 10478 10481 10485 10489 10493 10497 10500 10504 10508 10511 10513 10515 10519 10523 10526 10529 10532 10533 10535 10537 10539
10529 10528 10527 10525 10524 10522 10520 10518 10515 10513 10510 10507 10505 10503 10500 10497 10495 10492 10489 10487 10484 10482 10479 10476 10473 10470 10467 10464 10461 10457 10454 10451 10447 10444 10441 10438 10435 10433 10431 10429 10427 10426 10425 10425 10424 10424 10423 10422 10422 10423 10425 10428 10432 10436 10438 10439 10441 10445 10449 10453 10455 10458 10461 10465 10468 10472 10475 10479 10483 10488 10491 10495 10499 10502 10504 10507 10511 10514 10517 10520 10522 10524 10526 10528 10531
10522 10521 10520 10518 10516 10514 10512 10510 10508 10505 10502 10500 10497 10495 10492 10489 10487 10484 10482 10479 10476 10473 10470 10467 10464 10460 10457 10454 10450 10447 10443 10440 10436 10432 10429 10425 10422 10419 10416 10414 10412 10410 10409 10408 10409 10409 10410 10409 10408 10407 10409 10412 10416 10421 10425 10427 10429 10432 10436 10440 10443 10446 10450 10454 10458 10462 10465 10469 10474 10478 10481 10485 10489 10493 10495 10498 10502 10505 10508 10512 10514 10517 10520 10521 10525
10515 10514 10512 10510 10509 10507 10505 10503 10500 10497 10494 10491 10489 10487 10484 10481 10479 10476 10474 10471 10468 10465 10461 10457 10453 10450 10446 10443 10439 10436 10432 10428 10424 10420 10416 10413 10409 10405 10401 10399 10396 10393 10391 10390 10391 10392 10393 10395 10395 10393 10393 10395 10400 10405 10410 10414 10416 10419 10423 10427 10431 10434 10437 10443 10448 10451 10455 10459 10463 10467 10471 10475 10479 10483 10486 10489 10493 10496 10500 10504 10507 10510 10512 10514 10518
10508 10507 10505 10504 10502 10500 10498 10495 10492 10489 10486 10484 10481 10479 10476 10473 10471 10468 10466 10463 10459 10456 10452 10448 10444 10440 10436 10432 10428 10424 10420 10416 10412 10408 10404 10400 10395 10391 10388 10384 10381 10378 10375 10373 10372 10373 10375 10378 10380 10380 10379 10379 10382 10388 10394 10399 10402 10405 10409 10413 10418 10422 10425 10431 10437 10440 10444 10449 10452 10456 10461 10465 10469 10473 10477 10480 10484 10487 10492 10497 10499 10502 10504 10507 10510
10501 10500 10498 10496 10494 10492 10490 10487 10484 10481 10479 10476 10474 10471 10468 10465 10463 10460 10457 10454 10450 10446 10443 10439 10434 10430 10426 10421 10417 10413 10409 10404 10400 10395 10391 10387 10382 10378 10375 10371 10367 10364 10360 10357 10355 10355 10357 10360 10363 10365 10365 10364 10365 10370 10377 10383 10387 10390 10395 10399 10404 10408 10413 10418 10424 10429 10434 10438 10441 10445 10450 10455 10460 10464 10468 10472 10475 10479 10484 10488 10491 10494 10497 10499 10501
10494 10492 10491 10489 10487 10485 10482 10480 10477 10474 10472 10469 10466 10463 10460 10457 10454 10451 10448 10445 10441 10438 10433 10429 10425 10420 10416 10411 10406 10401 10397 10392 10387 10383 10378 10374 10369 10365 10362 10359 10355 10350 10347 10344 10341 10340 10340 10343 10347 10349 10350 10350 10350 10353 10359 10366 10371 10376 10380 10385 10390 10394 10400 10406 10411 10417 10422 10426 10430 10435 10440 10445 10450 10455 10460 10463 10467 10471 10475 10478 10482 10486 10489 10491 10494
10487 10486 10484 10482 10480 10478 10475 10472 10469 10467 10464 10462 10459 10456 10453 10450 10446 10443 10440 10436 10432 10429 10424 10420 10415 10410 10405 10400 10396 10391 10386 10381 10376 10371 10367 10362 10358 10354 10351 10348 10344 10339 10334 10331 10329 10327 10326 10327 10330 10334 10335 10336 10336 10337 10341 10348 10355 10360 10365 10370 10375 10380 10386 10393 10399 10405 10411 10415 10419 10425 10430 10435 10440 10445 10450 10454 10457 10461 10465 10469 10474 10478 10480 10483 10487
10480 10479 10477 10474 10472 10470 10468 10465 10462 10459 10457 10454 10451 10448 10445 10442 10439 10435 10431 10427 10423 10419 10414 10410 10405 10400 10395 10390 10385 10380 10376 10371 10366 10361 10356 10351 10347 10343 10340 10337 10334 10329 10324 10320 10317 10315 10314 10314 10316 10319 10321 10322 10323 10323 10326 10331 10338 10345 10350 10356 10361 10367 10372 10379 10386 10393 10399 10404 10409 10415 10419 10425 10430 10435 10440 10444 10448 10451 10456 10460 10465 10468 10471 10474 10478
10473 10471 10469 10467 10464 10462 10460 10457 10455 10452 10449 10447 10444 10440 10437 10434 10431 10427 10423 10419 10414 10410 10405 10400 10395 10390 10384 10380 10375 10370 10365 10360 10356 10351 10346 10342 10337 10333 10329 10327 10323 10319 10314 10310 10307 10304 10302 10301 10303 10306 10307 10309 10310 10311 10312 10316 10323 10330 10335 10341 10347 10353 10359 10365 10373 10380 10387 10392 10398 10404 10409 10414 10419 10424 10429 10434 10438 10442 10446 10451 10455 10459 10462 10465 10469
10465 10463 10461 10459 10457 10455 10452 10450 10447 10445 10442 10439 10436 10433 10430 10427 10423 10419 10414 10410 10406 10401 10396 10391 10385 10380 10374 10369 10364 10359 10355 10350 10346 10342 10337 10333 10328 10323 10319 10316 10313 10309 10305 10301 10298 10295 10292 10290 10291 10294 10296 10297 10298 10299 10300 10303 10309 10316 10322 10327 10333 10340 10346 10352 10360 10368 10375 10381 10387 10393 10398 10403 10408 10413 10418 10423 10427 10432 10436 10441 10446 10450 10453 10456 10460
10457 10455 10453 10451 10449 10447 10445 10442 10440 10437 10435 10432 10429 10426 10423 10419 10415 10411 10406 10401 10397 10392 10387 10382 10377 10372 10367 10361 10356 10351 10346 10341 10337 10333 10328 10324 10319 10314 10309 10306 10303 10300 10296 10293 10290 10288 10284 10281 10281 10283 10285 10286 10288 10289 10290 10292 10297 10303 10309 10314 10320 10327 10334 10340 10347 10355 10363 10370 10375 10381 10387 10392 10397 10402 10407 10412 10417 10421 10426 10431 10437 10441 10445 10448 10451
10449 10447 10446 10444 10441 10439 10437 10435 10432 10430 10427 10425 10422 10418 10415 10412 10407 10403 10398 10393 10388 10383 10378 10373 10369 10364 10360 10355 10350 10344 10339 10333 10328 10324 10319 10315 10311 10305 10299 10295 10292 10289 10287 10284 10281 10279 10277 10273 10272 10274 10275 10276 10278 10279 10280 10282 10286 10292 10297 10302 10308 10315 10322 10329 10335 10342 10350 10358 10364 10369 10375 10381 10386 10391 10396 10401 10406 10410 10416 10421 10427 10432 10436 10439 10442
10442 10440 10438 10436 10434 10432 10429 10427 10425 10422 10420 10418 10414 10411 10407 10403 10399 10395 10390 10385 10380 10375 10370 10365 10361 10357 10352 10348 10343 10338 10332 10327 10322 10316 10311 10306 10302 10297 10291 10286 10282 10279 10277 10275 10273 10270 10268 10266 10265 10265 10266 10267 10268 10270 10271 10273 10277 10281 10287 10292 10297 10304 10311 10317 10323 10330 10337 10345 10352 10358 10364 10369 10375 10381 10386 10391 10396 10401 10406 10411 10417 10422 10426 10430 10433
10435 10433 10431 10429 10426 10424 10422 10419 10417 10415 10413 10410 10406 10402 10399 10395 10391 10387 10382 10377 10372 10368 10364 10360 10355 10350 10345 10341 10336 10332 10327 10322 10316 10311 10306 10301 10297 10292 10285 10279 10275 10272 10269 10266 10264 10262 10260 10259 10258 10257 10258 10259 10260 10261 10263 10265 10268 10272 10277 10281 10287 10293 10299 10305 10312 10318 10325 10333 10341 10347 10351 10357 10363 10370 10375 10380 10386 10392 10397 10402 10407 10412 10416 10420 10423
10428 10426 10424 10421 10419 10417 10414 10412 10410 10408 10405 10402 10398 10394 10391 10387 10384 10380 10375 10370 10365 10361 10357 10354 10351 10347 10342 10337 10332 10327 10322 10317 10312 10307 10302 10298 10294 10289 10283 10275 10270 10267 10263 10260 10258 10255 10253 10251 10251 10250 10250 10251 10252 10254 10255 10257 10259 10263 10268 10272 10277 10283 10289 10294 10301 10307 10314 10321 10329 10335 10340 10347 10355 10360 10365 10370 10376 10382 10388 10393 10397 10401 10406 10410 10413
10420 10418 10416 10413 10411 10409 10407 10405 10402 10400 10397 10394 10390 10387 10383 10380 10377 10373 10369 10364 10359 10355 10351 10348 10345 10342 10338 10333 10328 10323 10319 10313 10308 10303 10298 10292 10288 10283 10278 10272 10266 10262 10259 10255 10252 10249 10247 10245 10244 10244 10244 10244 10245 10246 10248 10250 10252 10255 10259 10264 10269 10274 10279 10285 10291 10297 10304 10310 10317 10324 10332 10340 10345 10351 10356 10361 10367 10373 10378 10383 10387 10391 10396 10400 10404
10412 10410 10408 10406 10403 10401 10399 10397 10394 10392 10389 10386 10383 10379 10376 10373 10370 10367 10363 10359 10355 10350 10346 10343 10339 10336 10332 10327 10322 10318 10313 10308 10303 10298 10293 10287 10282 10277 10272 10267 10261 10257 10254 10250 10246 10244 10242 10240 10238 10237 10237 10238 10238 10240 10241 10243 10246 10248 10252 10256 10260 10265 10270 10275 10281 10288 10294 10300 10306 10315 10323 10330 10335 10340 10346 10351 10357 10363 10368 10373 10377 10381 10386 10390 10393
10405 10403 10400 10398 10396 10394 10392 10389 10386 10384 10381 10378 10375 10372 10369 10367 10364 10361 10358 10355 10351 10346 10342 10339 10335 10331 10327 10322 10317 10311 10307 10302 10297 10293 10288 10283 10278 10273 10268 10262 10256 10251 10248 10246 10242 10239 10236 10235 10233 10232 10232 10232 10232 10233 10235 10237 10239 10242 10245 10249 10253 10257 10261 10267 10272 10278 10284 10290 10296 10305 10313 10319 10325 10331 10336 10340 10346 10351 10357 10362 10366 10371 10375 10379 10383
10398 10395 10393 10391 10388 10386 10384 10381 10379 10376 10374 10371 10368 10366 10363 10361 10358 10355 10353 10350 10346 10343 10339 10335 10331 10327 10323 10319 10313 10307 10302 10297 10293 10288 10283 10278 10273 10269 10264 10259 10253 10248 10244 10241 10239 10235 10232 10230 10228 10227 10227 10227 10227 10228 10229 10231 10233 10236 10239 10243 10247 10250 10254 10259 10263 10269 10275 10282 10288 10296 10303 10309 10315 10321 10326 10330 10335 10340 10346 10351 10356 10360 10365 10369 10373
10391 10389 10386 10384 10381 10379 10377 10374 10372 10369 10367 10365 10362 10360 10357 10355 10353 10350 10348 10345 10342 10338 10335 10331 10327 10323 10319 10314 10309 10304 10299 10294 10288 10284 10279 10274 10269 10264 10260 10255 10251 10245 10240 10237 10234 10231 10228 10226 10224 10223 10222 10222 10222 10223 10224 10226 10228 10230 10233 10236 10240 10244 10248 10251 10256 10262 10268 10275 10281 10288 10295 10300 10306 10312 10316 10321 10326 10332 10338 10343 10347 10351 10355 10360 10364
10384 10381 10379 10377 10375 10372 10370 10367 10365 10363 10361 10359 10357 10354 10352 10350 10348 10345 10343 10341 10338 10334 10331 10327 10323 10319 10314 10310 10305 10300 10295 10290 10285 10280 10275 10270 10264 10259 10255 10251 10246 10241 10236 10233 10230 10228 10225 10222 10220 10219 10218 10218 10218 10218 10219 10220 10222 10225 10227 10230 10234 10238 10241 10245 10249 10255 10261 10267 10273 10279 10285 10291 10296 10302 10307 10313 10319 10324 10329 10333 10337 10341 10346 10350 10354
10376 10374 10372 10370 10368 10366 10364 10361 10359 10357 10355 10354 10352 10349 10347 10345 10343 10341 10339 10336 10334 10330 10327 10323 10319 10315 10311 10307 10302 10297 10292 10287 10282 10276 10271 10267 10262 10257 10252 10247 10243 10239 10234 10230 10227 10225 10222 10220 10217 10216 10215 10214 10214 10214 10215 10216 10217 10219 10222 10225 10228 10232 10235 10239 10243 10248 10254 10259 10265 10270 10275 10281 10286 10292 10299 10305 10310 10314 10318 10323 10328 10332 10336 10340 10343
10368 10367 10365 10363 10361 10359 10358 10356 10354 10352 10350 10348 10346 10344 10342 10341 10339 10337 10334 10332 10329 10326 10323 10319 10316 10312 10308 10304 10299 10295 10290 10284 10279 10274 10269 10264 10260 10254 10249 10245 10241 10237 10233 10229 10224 10222 10219 10217 10215 10213 10212 10211 10210 10210 10211 10212 10213 10215 10217 10219 10222 10226 10229 10233 10237 10241 10246 10252 10257 10262 10267 10273 10278 10284 10290 10297 10301 10304 10308 10313 10318 10322 10326 10330 10333
10361 10360 10359 10357 10356 10354 10352 10351 10349 10348 10346 10344 10342 10340 10338 10337 10335 10332 10330 10328 10325 10322 10319 10315 10312 10309 10305 10300 10296 10291 10286 10281 10275 10270 10265 10260 10256 10251 10246 10243 10239 10235 10231 10228 10223 10220 10217 10215 10212 10210 10209 10208 10207 10207 10207 10208 10209 10210 10212 10214 10217 10220 10223 10227 10231 10235 10239 10244 10249 10255 10260 10265 10271 10276 10282 10288 10293 10296 10299 10303 10307 10311 10315 10319 10323
10355 10354 10353 10352 10351 10349 10348 10346 10345 10343 10341 10339 10337 10336 10334 10333 10331 10328 10326 10324 10321 10318 10315 10312 10309 10305 10302 10298 10293 10288 10283 10278 10272 10267 10262 10258 10253 10248 10244 10240 10236 10233 10229 10226 10222 10218 10215 10212 10210 10208 10207 10205 10205 10204 10204 10204 10205 10207 10208 10210 10212 10215 10218 10221 10225 10228 10233 10237 10242 10248 10253 10258 10263 10268 10273 10279 10284 10287 10291 10294 10297 10301 10304 10308 10313
10349 10348 10347 10347 10346 10345 10343 10342 10340 10338 10336 10335 10333 10331 10330 10329 10327 10325 10322 10320 10317 10314 10311 10308 10305 10302 10299 10295 10290 10286 10281 10276 10270 10265 10260 10255 10251 10247 10242 10237 10233 10230 10227 10224 10221 10217 10214 10211 10208 10206 10205 10203 10202 10202 10201 10201 10202 10203 10204 10206 10208 10210 10213 10216 10219 10223 10227 10231 10236 10240 10245 10250 10255 10260 10264 10269 10273 10278 10282 10285 10288 10291 10294 10298 10303
10344 10343 10342 10341 10341 10340 10339 10337 10335 10333 10332 10330 10329 10327 10326 10324 10323 10321 10318 10316 10314 10311 10308 10305 10302 10299 10295 10292 10288 10283 10279 10274 10269 10263 10258 10254 10249 10245 10241 10236 10231 10228 10225 10222 10219 10216 10213 10210 10207 10205 10203 10201 10200 10199 10199 10198 10199 10199 10200 10202 10204 10206 10208 10211 10214 10217 10221 10225 10229 10233 10238 10242 10247 10251 10255 10260 10264 10268 10272 10276 10279 10282 10284 10288 10293
10339 10338 10337 10337 10336 10335 10334 10332 10330 10329 10327 10326 10325 10323 10321 10320 10318 10317 10314 10312 10310 10307 10304 10302 10299 10296 10292 10289 10285 10281 10277 10272 10267 10262 10257 10252 10248 10244 10240 10235 10230 10226 10223 10220 10217 10214 10212 10209 10206 10203 10201 10200 10198 10197 10196 10196 10196 10196 10197 10198 10200 10201 10203 10206 10208 10212 10215 10219 10222 10226 10230 10234 10239 10243 10247 10251 10255 10259 10262 10266 10270 10273 10275 10278 10282
10334 10333 10332 10332 10331 10330 10328 10327 10326 10324 10323 10322 10320 10319 10317 10315 10313 10312 10310 10308 10305 10303 10301 10298 10296 10292 10289 10285 10282 10278 10274 10270 10266 10261 10256 10251 10246 10242 10239 10235 10230 10226 10222 10218 10216 10213 10210 10208 10205 10203 10200 10198 10196 10195 10194 10194 10193 10193 10194 10195 10196 10197 10199 10201 10203 10206 10209 10212 10215 10219 10222 10226 10230 10234 10238 10242 10246 10250 10254 10257 10261 10264 10267 10270 10272
10330 10328 10328 10327 10326 10325 10323 10322 10321 10320 10319 10318 10316 10315 10313 10310 10309 10307 10305 10303 10301 10299 10297 10294 10292 10289 10286 10282 10279 10275 10272 10268 10264 10260 10255 10250 10245 10241 10237 10233 10230 10225 10221 10218 10214 10211 10209 10207 10205 10202 10200 10198 10195 10194 10192 10192 10191 10191 10191 10191 10192 10193 10195 10196 10198 10200 10203 10206 10208 10211 10214 10218 10222 10226 10230 10234 10237 10241 10245 10248 10252 10255 10258 10261 10264
10325 10324 10323 10322 10321 10320 10319 10318 10317 10316 10315 10314 10312 10311 10309 10307 10305 10302 10300 10299 10297 10295 10293 10291 10288 10286 10282 10279 10275 10272 10269 10266 10262 10258 10254 10249 10244 10239 10235 10231 10228 10225 10221 10217 10213 10210 10208 10205 10203 10201 10199 10197 10195 10193 10191 10189 10189 10188 10188 10188 10189 10189 10190 10192 10193 10195 10197 10199 10202 10204 10207 10210 10214 10218 10221 10225 10228 10232 10235 10239 10242 10245 10248 10251 10254
10320 10319 10319 10318 10317 10316 10315 10314 10313 10312 10311 10310 10308 10307 10305 10304 10301 10299 10296 10294 10293 10291 10289 10286 10284 10282 10279 10276 10272 10269 10266 10263 10260 10256 10252 10247 10243 10238 10233 10230 10226 10223 10220 10216 10213 10209 10207 10204 10202 10200 10197 10196 10194 10192 10190 10188 10187 10186 10185 10185 10185 10186 10186 10187 10189 10190 10192 10194 10196 10198 10200 10203 10206 10209 10212 10215 10219 10223 10226 10229 10232 10235 10238 10241 10243
10316 10315 10315 10314 10313 10312 10311 10310 10309 10308 10307 10306 10304 10303 10302 10300 10298 10296 10293 10291 10289 10287 10284 10282 10280 10278 10276 10273 10270 10266 10263 10260 10257 10253 10250 10246 10241 10237 10232 10228 10225 10221 10218 10215 10212 10209 10206 10203 10201 10199 10196 10194 10192 10190 10189 10187 10185 10184 10183 10182 10182 10182 10183 10183 10184 10185 10186 10188 10190 10192 10194 10196 10198 10200 10203 10206 10209 10213 10216 10219 10222 10225 10228 10230 10233
10312 10311 10311 10310 10309 10308 10308 10307 10306 10304 10303 10302 10300 10299 10298 10297 10295 10293 10291 10288 10286 10283 10281 10278 10276 10274 10272 10269 10267 10264 10260 10257 10253 10250 10247 10243 10239 10235 10231 10227 10223 10220 10217 10213 10211 10208 10205 10202 10200 10198 10195 10193 10191 10189 10187 10185 10184 10182 10181 10180 10179 10179 10179 10179 10180 10180 10181 10182 10184 10186 10188 10189 10191 10193 10195 10197 10200 10203 10206 10209 10212 10214 10217 10219 10222
10309 10308 10307 10306 10305 10305 10304 10303 10302 10301 10299 10298 10297 10295 10294 10293 10291 10290 10288 10286 10283 10281 10278 10275 10272 10270 10267 10265 10263 10260 10257 10254 10250 10247 10244 10240 10237 10233 10229 10225 10222 10218 10215 10212 10209 10206 10203 10201 10199 10196 10194 10192 10189 10187 10185 10183 10182 10181 10179 10178 10177 10176 10175 10175 10176 10176 10176 10177 10178 10179 10181 10183 10184 10185 10187 10188 10191 10194 10196 10199 10201 10203 10205 10208 10210
10305 10304 10303 10302 10302 10301 10300 10299 10298 10297 10296 10295 10293 10292 10291 10289 10288 10286 10284 10282 10280 10278 10275 10272 10269 10266 10263 10261 10258 10256 10253 10250 10247 10243 10240 10237 10234 10230 10227 10223 10220 10217 10213 10210 10207 10204 10202 10199 10197 10194 10192 10190 10188 10186 10184 10182 10180 10178 10177 10176 10175 10173 10173 10172 10172 10172 10172 10172 10173 10173 10174 10176 10177 10178 10179 10180 10182 10184 10186 10188 10190 10192 10194 10196 10198
10302 10301 10300 10299 10298 10297 10296 10295 10294 10293 10292 10291 10289 10288 10287 10285 10284 10282 10280 10278 10276 10274 10272 10269 10266 10263 10260 10257 10254 10252 10249 10246 10243 10239 10236 10233 10230 10227 10224 10221 10218 10214 10211 10208 10205 10202 10200 10197 10195 10192 10190 10188 10186 10184 10182 10180 10178 10176 10174 10173 10172 10171 10170 10169 10168 10168 10167 10167 10168 10168 10168 10169 10170 10171 10172 10173 10174 10175 10177 10178 10180 10181 10183 10185 10187